Wind_Speed
27 28 27 30 32 31 31 31 30 28 29 29 25 20 18 18 20 20 18 17 18 21 22 22 15 13 11 10 10 9 9 9 7 3 3 2 3 5 4 3 4 10 12
30 30 31 29 30 29 28 27 25 26 26 25 23 20 19 22 23 22 19 18 20 24 23 18 16 13 12 11 11 11 11 9 8 7 4 4 3 6 4 4 4 5 10
31 31 33 30 29 30 29 27 27 26 25 23 21 22 24 25 24 22 21 20 24 27 25 18 16 14 13 12 12 11 10 9 9 8 5 5 5 9 8 7 6 7 8
32 31 35 29 31 31 28 30 29 24 23 23 22 22 24 25 24 21 21 22 26 25 22 15 15 16 14 13 13 13 10 9 10 9 7 8 9 12 8 11 8 9 8
32 30 37 27 28 27 26 27 25 24 22 21 22 23 24 24 23 22 22 25 25 23 14 14 14 14 14 14 13 13 12 11 11 11 9 8 7 11 12 9 8 12 11
29 29 38 26 25 25 24 25 23 22 23 24 25 25 25 23 25 28 28 25 24 16 16 15 13 14 13 14 15 14 13 13 11 13 11 12 13 13 13 13 14 13 4
30 33 36 19 22 24 25 23 25 27 26 26 25 24 24 21 28 29 26 24 17 16 15 15 13 12 13 13 14 12 12 14 13 14 16 15 16 20 18 14 15 14 7
28 34 30 16 17 22 23 23 25 27 27 27 24 24 24 22 31 30 26 17 15 14 14 14 13 12 13 13 11 9 10 11 12 13 15 13 14 22 18 16 16 12 14
30 29 20 12 15 20 24 23 23 26 24 25 26 27 26 33 32 29 23 16 14 13 12 12 12 12 13 14 10 10 10 11 15 12 12 12 16 18 17 17 18 15 9
30 24 18 15 15 20 21 23 23 25 25 25 25 24 32 32 30 26 22 16 15 13 11 11 14 11 12 13 11 11 13 13 13 12 11 11 13 17 19 18 23 13 11
26 22 17 12 12 17 20 22 24 24 24 28 29 25 23 26 28 26 22 17 16 14 12 11 12 12 12 13 12 12 14 14 13 12 12 13 14 17 19 14 15 14 15
25 18 16 12 14 20 23 24 25 29 28 26 23 16 15 20 26 23 21 17 16 13 12 10 11 12 11 13 14 12 10 13 13 13 15 13 11 17 13 12 14 7 7
19 15 12 15 20 23 26 26 25 27 28 21 20 18 14 16 20 21 18 14 14 11 10 13 12 11 11 13 10 10 13 13 13 12 14 13 11 11 10 11 9 7 6
15 17 14 17 20 23 26 27 28 24 23 22 19 18 16 14 16 20 18 16 15 14 13 13 12 14 16 14 15 16 11 10 11 11 12 12 11 12 12 10 10 9 8
10 3 16 18 18 20 21 25 22 23 25 24 21 21 20 16 17 23 23 19 14 15 18 16 16 17 18 19 15 11 9 10 11 11 12 12 13 13 12 13 10 11 9
11 6 15 19 18 19 21 27 19 21 24 24 25 21 15 16 23 22 20 18 15 18 14 16 16 17 17 17 13 12 9 9 9 10 10 13 13 15 13 10 9 10 10
14 14 18 20 17 17 20 22 18 24 21 20 19 15 16 23 23 22 19 16 14 15 11 16 16 16 16 15 14 13 11 9 11 9 9 10 11 12 14 10 9 10 8
15 20 23 21 17 20 21 22 22 19 15 15 19 17 21 22 21 21 18 17 18 11 15 16 16 16 17 15 13 10 10 11 11 10 10 9 10 13 11 11 10 9 9
14 21 25 25 19 20 20 21 20 20 19 17 19 23 23 21 17 16 17 13 11 13 15 14 18 17 14 13 12 10 10 10 10 10 9 8 8 8 9 8 8 8 8
22 23 24 22 21 19 19 19 18 19 19 18 19 22 24 21 17 11 9 10 10 11 15 17 16 15 16 12 13 11 9 10 10 9 8 9 9 9 9 9 9 9 8
24 25 27 22 19 18 18 18 19 20 18 17 18 26 21 17 14 11 10 10 11 10 13 16 15 13 14 13 12 11 10 9 9 9 9 10 9 9 9 10 9 9 9
23 23 22 21 19 18 18 19 19 19 18 19 23 23 20 15 14 13 11 10 9 9 10 15 13 12 12 10 10 10 10 9 9 9 8 9 8 8 7 7 9 10 10
24 23 21 19 18 22 19 19 19 19 20 22 25 23 18 16 15 16 15 16 15 15 14 13 13 12 12 12 10 10 9 9 8 8 8 7 8 8 9 10 8 8 9
22 22 20 22 19 19 19 19 20 23 24 24 22 19 18 19 19 17 17 18 19 18 17 16 15 13 13 15 13 13 11 10 8 7 7 9 8 8 8 8 9 9 7
20 21 21 21 20 20 21 21 21 22 22 22 21 20 22 21 21 20 20 20 20 19 17 16 14 12 11 10 10 10 11 10 8 7 6 6 5 3 4 7 7 9 8
19 20 21 21 23 22 22 22 22 23 23 22 22 23 24 21 24 24 23 23 24 24 24 22 18 16 15 13 11 10 10 10 8 8 9 11 13 14 15 16 16 18 17
Wind_Direction
309 299 286 272 252 238 230 227 222 217 220 215 205 199 197 193 189 188 187 187 189 199 197 201 199 192 192 192 195 200 207 214 236 183 188 208 179 181 188 204 205 198 208
311 306 297 277 251 235 225 222 215 210 212 200 201 195 188 187 185 184 186 184 185 193 193 191 193 187 188 189 196 200 210 205 227 219 178 174 194 190 192 176 165 157 171
311 311 302 278 244 227 218 210 205 202 194 194 192 190 188 186 183 184 184 185 193 194 188 189 191 187 187 189 195 199 206 205 209 221 182 171 176 187 160 143 142 153 159
309 312 306 277 237 223 211 199 192 189 188 191 190 189 189 183 181 182 182 189 194 192 193 189 190 192 191 191 197 206 204 201 204 212 195 172 165 183 166 148 131 141 152
303 313 305 276 239 223 207 196 184 180 186 184 180 186 183 180 177 180 184 188 188 188 189 189 192 194 194 195 197 204 200 202 204 204 188 171 173 172 173 164 153 146 139
304 311 301 271 229 210 198 188 174 172 177 177 178 179 177 177 184 185 184 183 183 182 184 187 193 197 202 205 209 210 208 203 199 195 195 197 188 180 174 171 156 152 136
308 310 294 253 214 196 189 179 171 165 167 170 172 174 176 175 186 181 181 178 176 181 185 185 186 193 198 199 206 212 219 222 223 202 192 202 191 190 181 165 171 174 143
308 297 288 235 195 179 168 173 162 160 165 164 165 172 171 176 175 174 177 168 173 181 185 187 188 191 195 192 195 200 209 211 209 212 215 204 194 194 189 181 172 141 143
285 281 292 257 182 167 162 166 159 153 156 164 168 167 166 166 171 174 169 168 172 174 179 185 189 191 199 197 198 198 192 194 196 204 206 206 204 194 183 175 166 152 156
293 296 295 292 186 170 164 158 154 158 158 155 151 151 163 162 172 176 171 168 168 169 173 181 187 186 198 202 197 189 186 194 186 184 186 190 191 198 192 183 179 172 165
298 295 283 265 192 164 150 151 152 145 143 139 143 148 151 165 171 177 180 173 175 171 173 176 187 192 191 194 190 193 200 184 178 175 166 165 169 188 187 190 184 185 184
289 278 269 220 171 158 155 147 146 140 129 121 124 125 140 157 165 172 180 180 173 167 171 177 182 184 191 190 192 198 198 180 168 164 159 162 169 178 177 185 184 193 203
278 275 248 175 159 161 149 142 139 133 129 133 139 134 134 145 157 169 176 179 161 152 163 171 169 170 167 168 177 170 170 160 159 155 162 163 170 166 161 165 169 168 166
261 272 178 151 151 150 144 142 133 133 135 140 142 143 144 146 156 162 160 156 155 155 153 158 161 163 166 157 150 146 151 163 171 168 163 160 162 172 173 169 167 172 175
221 158 137 143 133 123 121 127 134 143 149 149 153 152 153 160 171 166 163 160 159 158 150 149 151 154 152 149 150 150 149 155 160 164 163 164 169 168 171 176 169 176 183
186 164 125 112 113 115 112 97 124 143 150 152 154 155 155 164 161 163 167 171 162 157 149 155 155 155 151 157 155 152 155 158 163 163 163 169 170 177 173 175 183 193 189
173 159 121 120 113 139 129 122 106 106 125 140 147 149 156 155 159 163 166 161 161 158 155 158 152 153 153 161 163 163 160 156 159 159 166 171 176 179 177 182 189 186 196
169 161 137 140 152 139 135 132 127 127 123 117 135 137 143 146 151 156 158 152 156 163 162 155 154 155 160 162 165 164 162 158 158 162 170 178 181 188 187 194 196 189 195
168 153 143 148 150 138 135 135 133 133 133 128 124 133 140 138 139 144 151 158 158 158 162 157 162 165 164 170 173 170 168 168 165 169 174 178 185 191 198 201 197 197 202
159 148 138 138 135 132 134 137 137 137 136 135 136 138 139 132 134 136 140 150 152 158 167 162 165 169 176 173 174 172 171 171 171 175 177 187 195 195 201 199 200 204 207
134 133 136 131 128 134 137 141 142 141 139 136 140 152 146 140 137 133 135 144 150 151 168 173 168 167 169 164 168 170 171 173 181 178 181 191 196 199 202 206 206 209 211
139 139 136 136 135 135 136 138 139 140 136 135 143 147 145 132 130 124 121 121 123 130 151 167 164 168 168 165 167 168 168 172 179 182 185 192 199 208 210 217 221 217 216
136 131 127 127 129 132 133 135 134 133 133 137 140 139 133 132 117 115 114 122 124 131 136 143 153 160 174 181 172 172 173 175 184 188 188 194 207 222 228 226 226 213 217
134 132 127 125 132 132 127 127 127 131 133 134 134 129 124 120 116 111 118 121 121 119 122 130 134 139 147 161 165 173 177 182 186 197 205 215 224 231 233 234 243 232 223
135 135 134 129 127 123 120 122 125 126 122 118 112 115 117 118 114 114 116 117 115 112 108 112 116 124 135 151 172 188 195 195 198 203 209 208 185 180 150 128 109 98 105
135 133 131 129 129 129 129 128 124 119 116 114 114 119 121 115 119 118 115 112 110 108 106 99 96 102 109 114 119 136 158 173 159 146 134 124 113 104 104 102 97 92 83
Height
680 673 667 662 660 660 660 660 665 670 674 680 687 687 690 698 706 711 715 717 722 730 734 739 743 744 746 747 749 751 754 756 755 760 762 763 763 764 765 765 765 765 766
673 666 659 654 652 651 649 652 657 662 667 673 680 681 687 695 701 705 711 713 719 726 731 736 740 741 743 744 747 749 751 753 755 756 760 761 762 763 764 765 765 765 766
665 658 651 644 642 640 641 644 649 656 659 667 671 677 684 690 696 701 707 710 716 722 727 732 736 738 740 742 745 747 749 751 754 754 758 759 761 762 763 765 765 766 767
658 650 641 634 632 633 634 638 641 647 654 660 665 673 682 687 692 699 703 708 714 720 725 729 732 735 736 739 742 744 747 749 752 753 755 758 759 761 763 765 766 767 769
652 641 634 626 625 627 629 632 635 640 648 655 663 673 680 684 689 695 699 705 712 718 723 726 730 732 734 736 739 742 743 746 749 750 753 756 758 760 761 765 767 768 770
646 635 627 617 617 617 621 626 628 635 644 653 661 669 674 679 685 690 697 703 710 716 720 724 727 729 732 734 736 738 740 742 745 747 750 751 755 757 759 763 766 768 771
637 628 622 611 610 610 616 621 625 631 640 649 657 664 670 676 682 689 696 702 708 713 717 721 725 727 729 731 734 735 737 739 742 744 746 749 752 754 758 762 765 766 768
627 626 616 606 606 607 611 620 622 628 637 645 653 661 668 674 681 689 696 701 707 711 715 718 722 725 727 729 732 733 736 738 740 742 744 748 750 753 757 760 764 766 770
621 620 609 603 603 605 608 616 621 627 636 643 652 658 664 672 680 687 694 700 705 709 713 717 720 722 724 726 729 731 733 736 739 741 744 746 749 753 756 759 762 765 769
613 607 606 603 603 604 609 613 619 627 635 643 651 657 664 671 679 686 693 698 704 708 713 715 717 720 721 724 727 729 732 735 737 740 742 745 748 752 755 758 760 764 767
614 606 604 602 602 605 609 615 622 628 636 642 650 659 665 672 679 686 691 697 702 707 710 712 715 717 720 723 725 728 730 733 737 739 742 744 748 751 755 758 760 763 765
607 602 599 600 601 605 611 616 623 629 637 644 653 662 669 674 679 685 691 696 700 703 707 710 713 716 719 721 724 727 729 733 737 739 741 744 748 751 754 757 759 762 763
602 599 597 599 601 606 611 617 625 630 636 648 654 663 671 675 680 687 692 696 698 703 706 709 712 715 718 721 724 726 729 733 736 740 743 745 749 752 754 757 759 762 764
602 599 597 599 603 607 612 617 620 631 639 647 656 665 672 677 682 687 692 695 699 701 705 708 712 715 719 721 724 728 731 733 736 739 743 746 749 751 754 756 759 761 764
600 594 596 600 604 608 611 616 625 635 640 647 656 662 669 676 681 685 689 694 698 700 704 709 712 716 718 722 725 729 732 734 736 739 742 745 748 751 753 756 758 761 761
598 596 596 600 606 607 614 620 631 637 642 648 655 662 669 675 679 685 690 694 696 700 705 708 712 715 718 722 725 729 732 734 737 740 742 745 747 750 753 756 758 759 761
595 596 599 605 607 618 621 627 636 644 649 655 660 664 669 673 680 686 690 693 697 701 704 708 711 714 718 722 726 729 732 734 737 740 743 745 748 750 753 755 757 758 759
592 598 602 605 613 619 625 631 637 645 652 659 663 667 673 677 682 686 690 694 698 702 704 707 710 714 718 722 726 729 732 734 736 740 743 746 748 750 753 754 755 756 757
591 596 599 609 616 621 627 634 640 647 654 660 665 671 677 681 684 688 692 695 698 701 704 708 710 714 719 723 726 729 732 735 737 740 743 746 748 750 752 753 753 754 756
592 595 597 608 617 623 629 636 642 649 656 661 667 672 677 682 686 690 693 696 699 701 703 707 711 715 719 722 726 729 732 735 737 740 742 744 746 748 750 751 752 752 753
595 601 606 612 619 627 633 638 644 651 656 662 668 673 678 682 687 690 693 696 698 701 704 707 711 715 718 722 725 729 732 735 737 739 741 743 745 747 748 749 750 750 751
597 603 608 615 623 629 635 640 646 651 657 664 671 676 681 685 688 692 695 697 700 703 705 707 711 715 719 722 725 728 731 734 736 738 740 742 744 745 746 747 747 747 749
598 604 613 619 625 631 637 642 647 653 659 666 670 677 683 687 690 692 695 698 701 703 706 709 712 715 718 722 725 728 730 733 735 737 739 740 742 743 743 744 744 745 745
602 609 616 622 628 633 638 644 651 656 662 667 673 679 683 687 691 694 697 700 702 705 708 710 713 716 718 721 724 727 729 731 734 735 737 738 739 739 740 740 740 741 743
608 614 620 625 631 637 643 648 654 660 665 670 675 680 685 689 693 697 700 702 705 708 710 712 715 717 719 721 723 725 727 730 732 733 734 735 735 736 736 738 740 741 742
613 618 623 629 635 641 647 653 658 663 668 674 679 684 688 693 697 701 704 706 709 711 715 717 719 721 722 723 724 725 726 728 730 732 733 734 735 736 739 741 742 743 745